Location: *
(60.1759°S, 155.0663°W)
Time: 03:02:11
(UTC+00:00)

USA 229 - Pass Details

Date: 17 September 2019
Orbit: 1003 x 1209 km, 63.5° (Epoch: 08 October)

Event Time Altitude Azimuth Distance (km) Brightness Sun altitude
Rises 13:58:07 0° 234° (SW) 3,987 6.5 -18.2°
Reaches altitude 10° 14:01:01 10° 241° (WSW) 2,992 5.7 -17.9°
Maximum altitude 14:07:28 39° 306° (NW) 1,552 4.1 -17.2°
Drops below altitude 10° 14:13:37 10° 12° (NNE) 2,846 5.8 -16.5°
Sets 14:16:20 0° 19° (NNE) 3,772 6.5 -16.2°
